TimeCDT,TemperatureF,Dew PointF,Humidity,Sea Level PressureIn,VisibilityMPH,Wind Direction,Wind SpeedMPH,Gust SpeedMPH,PrecipitationIn,Events,Conditions,WindDirDegrees,DateUTC
12:53 AM,39.0,19.9,46,30.31,10.0,East,3.5,-,N/A,,Mostly Cloudy,80,2012-04-11 05:53:00
1:53 AM,37.0,17.1,44,30.31,10.0,Calm,Calm,-,N/A,,Clear,0,2012-04-11 06:53:00
2:53 AM,33.1,18.0,54,30.32,10.0,NNE,4.6,-,N/A,,Clear,30,2012-04-11 07:53:00
3:53 AM,33.1,17.1,52,30.31,10.0,ENE,4.6,-,N/A,,Clear,70,2012-04-11 08:53:00
4:53 AM,32.0,18.0,56,30.32,10.0,East,6.9,-,N/A,,Clear,90,2012-04-11 09:53:00
5:53 AM,32.0,18.0,56,30.34,10.0,East,6.9,-,N/A,,Clear,100,2012-04-11 10:53:00
6:53 AM,28.0,17.1,63,30.35,10.0,East,5.8,-,N/A,,Clear,80,2012-04-11 11:53:00
7:53 AM,30.9,18.0,59,30.37,10.0,East,4.6,-,N/A,,Clear,90,2012-04-11 12:53:00
8:53 AM,35.1,18.0,50,30.38,10.0,ESE,10.4,-,N/A,,Clear,120,2012-04-11 13:53:00
9:53 AM,39.0,18.0,43,30.38,10.0,SE,10.4,-,N/A,,Clear,140,2012-04-11 14:53:00
10:53 AM,43.0,19.0,38,30.37,10.0,ESE,12.7,-,N/A,,Clear,120,2012-04-11 15:53:00
11:53 AM,46.9,21.0,36,30.35,10.0,SE,10.4,-,N/A,,Clear,140,2012-04-11 16:53:00
12:53 PM,50.0,21.9,33,30.32,10.0,SE,10.4,-,N/A,,Clear,130,2012-04-11 17:53:00
1:53 PM,54.0,23.0,30,30.29,10.0,SSE,9.2,16.1,N/A,,Partly Cloudy,160,2012-04-11 18:53:00
2:53 PM,55.9,23.0,28,30.27,10.0,SSE,13.8,-,N/A,,Clear,160,2012-04-11 19:53:00
3:53 PM,57.0,24.1,28,30.22,10.0,SSE,10.4,23.0,N/A,,Clear,150,2012-04-11 20:53:00
4:53 PM,59.0,24.8,27,30.16,10.0,SE,11.5,21.9,N/A,,Clear,140,2012-04-11 21:53:00
5:53 PM,57.9,24.1,27,30.17,10.0,SE,13.8,-,N/A,,Mostly Cloudy,140,2012-04-11 22:53:00
6:53 PM,57.0,24.1,28,30.15,10.0,SSE,13.8,-,N/A,,Overcast,150,2012-04-11 23:53:00
7:53 PM,55.9,24.1,29,30.13,10.0,SSE,11.5,-,N/A,,Overcast,150,2012-04-12 00:53:00
8:53 PM,54.0,25.0,33,30.14,10.0,South,10.4,-,N/A,,Overcast,170,2012-04-12 01:53:00
9:53 PM,53.1,27.0,37,30.14,10.0,SSE,10.4,-,N/A,,Overcast,160,2012-04-12 02:53:00
10:53 PM,53.1,28.0,38,30.12,10.0,SSE,9.2,-,N/A,,Overcast,160,2012-04-12 03:53:00
11:53 PM,52.0,28.9,41,30.11,10.0,SSE,9.2,-,N/A,,Overcast,160,2012-04-12 04:53:00